Погода в Козлуке

Турция     38°11′33″N   41°29′23″E
темп.,
°C
ветер,
м/с
пор.,
м/с
влажн.,
%
обл.,
%
осадки,
мм/ч
давл.,
гПа
погр.,
м
26 июля, пн
пн2600:00+27ссв43250 0.0 100726
03:00+26ссв43270 0.0 100830
06:00+26св33270 0.0 100834
09:00+32ююз33200 0.0 1007812
12:00+35ююз46170 0.0 10072544
15:00+36юз66110 0.0 10063076
18:00+35зюз67100 0.0 10063106
21:00+26з11230 0.0 100811
27 июля, вт
вт2700:00+25ююв11240 0.0 100811
03:00+23всв11280 0.0 100811
06:00+25св33260 0.0 100821
09:00+31ююз36160 0.0 10071823
12:00+34юз68160 0.0 10063251
15:00+35зюз67144 0.0 10033772
18:00+34з44110 0.0 10013483
21:00+26с22200 0.0 100313
28 июля, ср
ср2800:00+25св43190 0.0 100328
03:00+23ссв55390 0.0 100357
06:00+22ссв56430 0.0 100496
09:00+30св33260 0.0 10031028
12:00+34св11162 0.0 10013506
15:00+36юз33135 0.0 9994349
18:00+35зюз441373 0.0 9982596
21:00+29св915270 0.0 1001691
29 июля, чт
чт2900:00+25ссв913370 0.0 1002397
03:00+22ссв68450 0.0 1003158
06:00+22ссв57460 0.0 1004175
09:00+29св45300 0.0 1003874
12:00+34св32200 0.0 10022095
15:00+37з12132 0.0 9993806
18:00+36юз431362 0.0 9992695
21:00+30св221922 0.0 100113
30 июля, пт
пт3000:00+26ссв56310 0.0 100274
03:00+23ссв56420 0.0 100287
06:00+23ссв56441 0.0 1003105
09:00+31всв22251 0.0 1002873
12:00+36ююз32165 0.0 10014004
15:00+37юз74120 0.0 9993646
18:00+35зюз54130 0.0 9993197
21:00+30ссв441852 0.0 100132